Pontiac, MI

4:56 AM EDT on July 24, 2017 (GMT -0400)
Oakland County International

Weather History for KPTK - December, 2013

Change the Weather History Date:

Saturday, December 21, 2013

  Actual Average Record
Temperature  
Mean Temperature 32 °F -  
Max Temperature 33 °F 29 °F 48 °F (2015)
Min Temperature 31 °F 18 °F 0 °F (2000)
Degree Days  
Heating Degree Days 33    
Moisture  
Dew Point 30 °F    
Average Humidity 92    
Maximum Humidity 100    
Minimum Humidity 81    
Precipitation  
Precipitation 0.45 in - - ()
Snow  
Snow 0.00 in - - ()
Snow Depth 3.00 in    
Sea Level Pressure  
Sea Level Pressure 29.78 in    
Wind  
Wind Speed 5 mph (NNE)    
Max Wind Speed 13 mph    
Max Gust Speed 21 mph    
Visibility 4 miles    
Events Fog , Rain    
Averages and records for this station are not official NWS values.
T = Trace of Precipitation, MM = Missing Value Source: NWS Daily Summary

Daily Weather History Graph

Daily Weather History Graph

Search for Another Location

Airport or City:

Trip Planner

Search our weather history database for the weather conditions in past years. The results will help you decide how hot, cold, wet, or windy it might be!

Date:

Astronomy

Dec. 21, 2013 Rise Set
Actual Time 8:00 AM EST 5:03 PM EST
Civil Twilight 7:28 AM EST 5:35 PM EST
Nautical Twilight 6:52 AM EST 6:11 PM EST
Astronomical Twilight 6:18 AM EST 6:45 PM EST
Moon 9:23 PM EST (12/21) 10:21 AM EST (12/21)
Length of Visible Light 10h 06m
Length of Day
9h 02m
Waning Gibbous, 84% of the Moon is Illuminated
Dec 21
Waning Gibbous
Dec 25
Last Quarter
Jan 1
New
Jan 7
First Quarter
Jan 15
Full

Hourly Weather History & Observations

Time (EST) Temp. Windchill Dew Point Humidity Pressure Visibility Wind Dir Wind Speed Gust Speed Precip Events Conditions
12:07 AM 33.8 °F 30.8 °F 32.0 °F 93% 29.70 in 2.5 mi ESE 3.5 mph - 0.00 in   Overcast
12:51 AM 33.8 °F - 32.0 °F 93% 29.69 in 1.5 mi Calm Calm - 0.00 in Rain Light Rain
12:53 AM 33.1 °F - 32.0 °F 96% 29.72 in 1.2 mi Calm Calm - 0.00 in Rain Light Rain
1:41 AM 33.8 °F - 32.0 °F 93% 29.69 in 0.8 mi Calm Calm - 0.00 in   Overcast
1:53 AM 33.1 °F - 32.0 °F 96% 29.73 in 0.5 mi Calm Calm - 0.00 in Fog Fog
2:53 AM 33.1 °F 30.0 °F 32.0 °F 96% 29.74 in 0.8 mi NNW 3.5 mph - N/A   Mist
3:53 AM 32.0 °F 27.5 °F 32.0 °F 100% 29.75 in 0.8 mi North 4.6 mph - N/A   Mist
4:53 AM 32.0 °F 27.5 °F 30.9 °F 96% 29.76 in 0.8 mi NNW 4.6 mph - N/A   Mist
5:11 AM 32.0 °F - 30.2 °F 93% 29.75 in 1.2 mi Calm Calm - N/A   Overcast
5:26 AM 32.0 °F 25.6 °F 30.2 °F 93% 29.74 in 2.5 mi NNW 6.9 mph - N/A   Overcast
5:39 AM 32.0 °F 26.4 °F 30.2 °F 93% 29.76 in 3.0 mi NNW 5.8 mph - N/A   Overcast
5:53 AM 32.0 °F 28.7 °F 30.9 °F 96% 29.80 in 3.0 mi NNW 3.5 mph - N/A   Overcast
6:11 AM 32.0 °F 26.4 °F 30.2 °F 93% 29.75 in 0.8 mi North 5.8 mph - N/A   Overcast
6:53 AM 32.0 °F 25.6 °F 30.9 °F 96% 29.78 in 0.8 mi North 6.9 mph - N/A   Overcast
7:29 AM 32.0 °F 28.7 °F 30.2 °F 93% 29.78 in 1.0 mi NNW 3.5 mph - N/A   Overcast
7:53 AM 32.0 °F 28.7 °F 30.0 °F 92% 29.80 in 1.0 mi North 3.5 mph - N/A   Overcast
8:01 AM 32.0 °F 27.5 °F 30.2 °F 93% 29.78 in 2.0 mi North 4.6 mph - N/A   Overcast
8:16 AM 32.0 °F 27.5 °F 30.2 °F 93% 29.79 in 3.0 mi North 4.6 mph - N/A   Overcast
8:53 AM 32.0 °F 26.4 °F 30.9 °F 96% 29.84 in 3.0 mi North 5.8 mph - N/A   Overcast
9:53 AM 32.0 °F 27.5 °F 30.9 °F 96% 29.87 in 5.0 mi North 4.6 mph - N/A   Overcast
10:53 AM 32.0 °F 26.4 °F 30.9 °F 96% 29.83 in 3.0 mi NE 5.8 mph - 0.01 in   Overcast
11:53 AM 33.1 °F 27.7 °F 30.9 °F 92% 29.84 in 5.0 mi NE 5.8 mph - 0.01 in Rain Light Rain
12:00 PM 33.8 °F 27.7 °F 30.2 °F 87% 29.79 in 5.0 mi NE 6.9 mph - 0.00 in Rain Light Rain
12:53 PM 33.1 °F 27.7 °F 30.9 °F 92% 29.83 in 5.0 mi NNE 5.8 mph - 0.00 in Rain Light Rain
1:53 PM 33.1 °F 27.7 °F 30.9 °F 92% 29.83 in 4.0 mi NE 5.8 mph - 0.02 in Rain Light Rain
2:53 PM 33.1 °F 26.9 °F 30.0 °F 89% 29.83 in 4.0 mi NNE 6.9 mph - 0.02 in Rain Light Rain
3:53 PM 33.1 °F 25.5 °F 30.0 °F 89% 29.83 in 5.0 mi NE 9.2 mph - 0.02 in Rain Light Rain
4:53 PM 32.9 °F 25.9 °F 30.0 °F 89% 29.83 in 5.0 mi NE 8.1 mph - 0.03 in Rain Light Rain
5:53 PM 32.9 °F 25.3 °F 30.0 °F 89% 29.82 in 9.0 mi NE 9.2 mph - 0.02 in Rain Light Rain
6:31 PM 32.0 °F 24.8 °F 28.4 °F 87% 29.80 in 5.0 mi NE 8.1 mph - 0.02 in Rain Light Freezing Rain
6:53 PM 31.1 °F 21.9 °F 28.9 °F 92% 29.83 in 5.0 mi NE 11.5 mph - 0.05 in Rain Light Freezing Rain
7:41 PM 32.0 °F 23.0 °F 28.4 °F 87% 29.80 in 5.0 mi NE 11.5 mph - 0.04 in Rain Light Rain
7:53 PM 32.9 °F 24.7 °F 28.9 °F 85% 29.83 in 6.0 mi NNE 10.4 mph - 0.06 in Rain Light Rain
8:53 PM 32.0 °F 23.6 °F 28.9 °F 88% 29.82 in 7.0 mi NNE 10.4 mph - 0.06 in Rain Light Rain
9:16 PM 32.0 °F 22.5 °F 28.4 °F 87% 29.77 in 5.0 mi NNE 12.7 mph 17.3 mph 0.03 in Rain Light Freezing Rain
9:53 PM 31.3 °F 22.1 °F 28.9 °F 91% 29.78 in 5.0 mi NE 11.5 mph - 0.05 in Rain Light Freezing Rain
10:32 PM 33.8 °F 25.3 °F 28.4 °F 81% 29.70 in 9.0 mi NE 11.5 mph - 0.03 in Rain Light Rain
10:53 PM 32.9 °F 23.7 °F 28.9 °F 85% 29.71 in 5.0 mi NE 12.7 mph 20.7 mph 0.04 in Rain Light Rain
11:27 PM 32.0 °F 23.0 °F 28.4 °F 87% 29.66 in 7.0 mi NNE 11.5 mph 20.7 mph 0.03 in Rain Light Freezing Rain
11:53 PM 31.3 °F 22.1 °F 28.9 °F 91% 29.68 in 7.0 mi NE 11.5 mph 19.6 mph 0.06 in Rain Light Freezing Rain